Punta Gorda, FL

5:28 PM EST on February 13, 2016 (GMT -0500)
Charlotte County

Weather History for KPGD - August, 2013

Change the Weather History Date:

Saturday, August 24, 2013

  Actual Average (KFMY) Record (KFMY)
Temperature  
Mean Temperature 83 °F 83 °F  
Max Temperature 93 °F 92 °F 97 °F (2014)
Min Temperature 73 °F 75 °F 65 °F (1957)
Degree Days  
Heating Degree Days 0 0  
Month to date heating degree days 0  
Since 1 June heating degree days 0  
Since 1 July heating degree days 0  
Cooling Degree Days 18 18  
Month to date cooling degree days 432  
Year to date cooling degree days 2587  
Since 1 June cooling degree days 1521  
Growing Degree Days 33 (Base 50)    
Moisture  
Dew Point 74 °F    
Average Humidity 84    
Maximum Humidity 100    
Minimum Humidity 50    
Precipitation  
Precipitation 2.66 in 0.34 in 7.47 in (1913)
Month to date precipitation 7.80  
Year to date precipitation 38.73  
Sea Level Pressure  
Sea Level Pressure 30.08 in    
Wind  
Wind Speed 6 mph (ESE)    
Max Wind Speed 32 mph    
Max Gust Speed 40 mph    
Visibility 8 miles    
Events Fog , Rain    
T = Trace of Precipitation, MM = Missing Value Source: NWS Daily Summary

Daily Weather History Graph

Daily Weather History Graph

Search for Another Location

Airport or City:

Trip Planner

Search our weather history database for the weather conditions in past years. The results will help you decide how hot, cold, wet, or windy it might be!

Date:

Astronomy

Aug. 24, 2013 Rise Set
Actual Time 7:03 AM EDT 7:56 PM EDT
Civil Twilight 6:39 AM EDT 8:20 PM EDT
Nautical Twilight 6:11 AM EDT 8:48 PM EDT
Astronomical Twilight 5:42 AM EDT 9:16 PM EDT
Moon 10:19 PM EDT (8/24) 10:34 AM EDT (8/24)
Length of Visible Light 13h 40m
Length of Day
12h 52m
Waning Gibbous, 84% of the Moon is Illuminated
Aug 24
Waning Gibbous
Aug 28
Last Quarter
Sep 5
New
Sep 12
First Quarter
Sep 19
Full

Hourly Weather History & Observations

Time (EDT) Temp. Heat Index Dew Point Humidity Pressure Visibility Wind Dir Wind Speed Gust Speed Precip Events Conditions
12:53 AM 75.9 °F - 73.9 °F 94% 30.04 in 10.0 mi NE 4.6 mph - N/A   Clear
1:53 AM 75.0 °F - 73.9 °F 96% 30.04 in 10.0 mi East 5.8 mph - N/A   Clear
2:53 AM 75.9 °F - 73.9 °F 94% 30.03 in 10.0 mi NE 3.5 mph - N/A   Clear
3:53 AM 75.9 °F - 75.0 °F 97% 30.03 in 10.0 mi Calm Calm - N/A   Clear
4:53 AM 75.0 °F - 73.9 °F 96% 30.02 in 10.0 mi Calm Calm - N/A   Clear
5:53 AM 75.0 °F - 73.9 °F 96% 30.04 in 10.0 mi Calm Calm - N/A   Clear
6:53 AM 75.0 °F - 73.9 °F 96% 30.04 in 10.0 mi East 3.5 mph - N/A   Clear
7:53 AM 77.0 °F - 75.9 °F 96% 30.06 in 10.0 mi East 4.6 mph - N/A   Clear
8:53 AM 79.0 °F - 77.0 °F 94% 30.07 in 10.0 mi ESE 4.6 mph - N/A   Clear
9:53 AM 84.0 °F 93.7 °F 77.0 °F 79% 30.09 in 10.0 mi ESE 4.6 mph - N/A   Clear
10:53 AM 87.1 °F 97.3 °F 75.9 °F 69% 30.11 in 10.0 mi SSE 4.6 mph - N/A   Partly Cloudy
11:53 AM 88.0 °F 96.5 °F 73.9 °F 63% 30.10 in 10.0 mi SSE 5.8 mph - N/A   Clear
12:53 PM 90.0 °F 97.9 °F 73.0 °F 57% 30.09 in 10.0 mi SE 3.5 mph - N/A   Clear
1:53 PM 91.0 °F 98.2 °F 72.0 °F 53% 30.08 in 10.0 mi SSE 4.6 mph - N/A   Partly Cloudy
2:53 PM 91.0 °F 99.3 °F 73.0 °F 55% 30.06 in 10.0 mi NNE 5.8 mph - N/A   Mostly Cloudy
3:53 PM 91.9 °F 99.5 °F 72.0 °F 52% 30.03 in 10.0 mi ENE 6.9 mph - N/A   Scattered Clouds
4:53 PM 91.0 °F 97.6 °F 71.1 °F 52% 30.03 in 10.0 mi ESE 6.9 mph - N/A   Clear
5:53 PM 93.0 °F 100.7 °F 72.0 °F 50% 30.01 in 10.0 mi ENE 4.6 mph - N/A   Clear
6:53 PM 91.9 °F 101.3 °F 73.9 °F 55% 30.02 in 10.0 mi ENE 6.9 mph - N/A   Scattered Clouds
7:30 PM 80.6 °F 86.2 °F 75.2 °F 84% 30.06 in 1.0 mi SE 28.8 mph 35.7 mph 0.21 in Rain Light Rain
7:34 PM 75.2 °F - 73.4 °F 94% 30.07 in 0.2 mi SE 25.3 mph 35.7 mph 0.66 in Fog , Rain Heavy Rain
7:39 PM 75.2 °F - 73.4 °F 94% 30.06 in 0.2 mi SSE 32.2 mph 40.3 mph 1.21 in Fog , Rain Heavy Rain
7:46 PM 73.4 °F - 73.4 °F 100% 30.07 in 0.2 mi South 21.9 mph 40.3 mph 1.66 in Fog , Rain Heavy Rain
7:53 PM 73.9 °F - 73.0 °F 97% 30.10 in 0.8 mi Variable 5.8 mph 35.7 mph 1.89 in Rain Heavy Rain
8:00 PM 75.2 °F - 73.4 °F 94% 30.11 in 1.8 mi Variable 3.5 mph - 0.08 in Rain Heavy Rain
8:07 PM 73.4 °F - 73.4 °F 100% 30.10 in 2.5 mi NNW 3.5 mph - 0.12 in Rain Rain
8:21 PM 75.2 °F - 73.4 °F 94% 30.13 in 1.2 mi NNE 8.1 mph - 0.45 in Rain Heavy Rain
8:34 PM 73.4 °F - 71.6 °F 94% 30.13 in 3.0 mi ENE 4.6 mph - 0.59 in Rain Rain
8:53 PM 73.9 °F - 72.0 °F 93% 30.13 in 7.0 mi NNE 3.5 mph - 0.62 in Rain Light Rain
9:40 PM 75.2 °F - 73.4 °F 94% 30.14 in 9.0 mi East 12.7 mph 19.6 mph 0.04 in Rain Light Rain
9:53 PM 75.9 °F - 73.9 °F 94% 30.14 in 9.0 mi East 9.2 mph - 0.06 in Rain Light Rain
10:06 PM 73.4 °F - 71.6 °F 94% 30.14 in 10.0 mi ESE 15.0 mph - 0.02 in Rain Light Rain
10:53 PM 73.0 °F - 71.1 °F 93% 30.12 in 10.0 mi SSE 9.2 mph - 0.07 in Rain Light Rain
11:53 PM 75.0 °F - 73.9 °F 96% 30.12 in 10.0 mi SSE 5.8 mph - 0.02 in   Scattered Clouds